Total_Precipitation_Accumulation
3.50 3.25 3.26 2.71 2.28 2.02 2.00 2.06 2.06 2.14 2.11 2.19 2.26 2.23 2.24 2.27 2.41 2.45 2.43 2.43 2.55 2.79 3.01 3.32 3.61 3.91 3.98 4.01 3.79 3.63 3.35 2.88 2.48 2.17 1.96 1.84 1.94 2.25 2.47 2.65 2.58 2.00 1.93
2.56 2.51 2.66 2.27 2.03 1.90 1.90 2.03 2.09 2.16 2.17 2.19 2.26 2.31 2.32 2.38 2.40 2.34 2.31 2.33 2.54 2.70 2.81 3.06 3.25 3.44 3.53 3.53 3.40 3.28 3.03 3.02 2.75 2.37 2.15 1.84 1.93 2.19 2.43 2.56 2.59 2.01 2.02
1.64 1.80 1.95 1.94 1.91 1.81 1.81 2.07 2.17 2.12 2.11 2.16 2.31 2.42 2.53 2.54 2.42 2.30 2.30 2.39 2.58 2.67 2.71 2.91 3.08 3.21 3.14 3.18 3.05 2.93 2.82 3.09 3.05 2.85 2.69 1.79 1.57 2.04 2.26 2.30 2.15 1.82 1.85
1.31 1.47 1.63 1.75 1.70 1.59 1.61 1.71 1.87 1.95 1.92 2.06 2.36 2.55 2.67 2.60 2.43 2.34 2.25 2.35 2.57 2.77 2.89 2.92 2.93 3.06 2.96 2.86 2.75 2.63 2.74 3.04 3.08 3.19 2.95 2.03 1.39 1.75 2.07 2.01 1.80 1.63 1.56
1.22 1.41 1.58 1.54 1.42 1.32 1.26 1.38 1.62 1.77 1.90 2.08 2.27 2.46 2.57 2.48 2.41 2.32 2.27 2.40 2.68 3.11 3.20 3.02 2.84 2.68 2.61 2.53 2.43 2.48 2.74 3.19 3.23 2.89 2.42 2.01 1.61 1.79 1.89 1.81 1.68 1.62 1.50
1.14 1.13 1.19 1.29 1.22 1.18 1.17 1.25 1.42 1.57 1.81 2.10 2.29 2.45 2.61 2.61 2.55 2.46 2.43 2.61 2.93 3.25 3.21 3.02 2.80 2.49 2.29 2.09 2.12 2.30 2.55 3.14 3.12 2.35 2.00 1.87 1.57 1.70 1.85 1.92 1.86 1.88 1.71
0.88 0.85 0.90 1.03 1.04 1.09 1.09 1.17 1.36 1.63 1.77 1.85 2.18 2.58 2.76 2.75 2.81 2.72 2.67 2.85 2.99 3.08 3.01 2.89 2.59 2.35 2.17 2.06 2.05 2.16 2.41 2.76 2.68 2.12 2.02 2.01 1.62 1.63 1.85 2.04 2.12 2.12 1.92
0.67 0.79 0.91 0.99 0.98 0.99 1.01 1.15 1.38 1.63 1.74 1.84 2.08 2.34 2.53 2.62 2.69 2.76 2.81 2.97 2.96 2.91 2.73 2.54 2.27 2.18 2.12 2.08 2.01 2.04 2.21 2.23 1.99 1.91 1.81 1.75 1.46 1.56 1.81 1.97 2.04 2.09 1.95
0.84 0.95 1.10 1.14 1.13 1.17 1.27 1.37 1.50 1.65 1.79 1.92 2.03 2.10 2.26 2.40 2.45 2.55 2.68 2.84 2.86 2.71 2.43 2.36 2.24 2.17 2.08 2.00 1.98 2.05 2.20 2.20 1.91 1.85 1.63 1.64 1.63 1.77 1.91 2.02 2.10 2.06 1.90
1.23 1.14 1.19 1.32 1.42 1.34 1.37 1.58 1.71 1.75 1.79 1.84 1.86 1.98 2.14 2.34 2.47 2.63 2.69 2.93 3.04 2.82 2.47 2.53 2.41 2.16 2.06 2.06 2.18 2.27 2.38 2.17 1.79 1.75 1.86 1.56 1.72 2.04 2.29 2.32 2.31 2.31 2.05
1.67 1.38 1.27 1.18 1.32 1.45 1.48 1.57 1.79 1.83 1.89 1.98 2.12 2.26 2.48 2.68 2.67 3.01 3.07 3.40 3.42 3.10 2.86 2.86 2.62 2.37 2.18 2.24 2.50 2.60 2.37 2.01 1.92 1.95 1.93 1.61 1.67 2.12 2.48 2.56 2.56 2.61 2.43
1.79 1.61 1.48 1.42 1.35 1.45 1.48 1.73 2.12 1.96 2.08 2.30 2.65 2.81 3.05 3.18 3.19 2.87 3.44 3.94 3.91 3.72 3.50 3.42 3.14 2.69 2.33 2.33 3.01 3.00 2.13 2.03 2.15 2.07 1.92 1.78 1.87 2.32 2.72 2.70 2.65 2.73 2.72
2.04 1.83 1.64 1.61 1.68 1.63 1.77 1.78 2.07 2.32 2.55 2.66 2.75 2.92 3.17 3.10 2.98 3.01 3.54 3.90 3.90 3.79 3.81 3.92 3.63 3.05 2.95 3.10 3.21 2.86 2.20 2.21 2.58 2.47 2.49 2.40 2.43 2.81 3.21 3.09 2.92 2.84 2.81
2.10 2.10 2.02 1.96 1.97 1.99 1.83 2.01 2.06 2.15 2.38 2.65 2.87 2.89 3.05 3.42 3.44 3.46 3.71 3.65 3.75 3.81 4.25 4.07 4.08 3.75 3.40 3.18 3.03 2.82 2.59 2.53 2.67 2.82 2.97 2.61 2.64 3.06 3.61 3.58 3.22 3.07 2.92
2.46 2.42 2.29 2.25 2.32 2.30 2.30 2.37 2.15 2.28 2.41 2.56 2.81 2.96 2.99 3.33 3.55 3.67 3.79 3.77 3.37 3.35 3.74 4.10 3.96 3.94 3.87 3.68 3.29 3.05 2.91 2.86 2.75 3.01 3.24 3.02 2.91 3.12 3.56 3.85 3.77 3.53 3.36
2.74 2.62 2.48 2.46 2.57 2.63 2.64 2.78 2.73 2.53 2.68 2.61 2.88 2.95 3.02 3.17 3.44 3.73 3.85 3.90 3.50 3.31 3.55 3.86 3.80 4.02 3.89 3.85 3.44 3.17 3.00 2.87 2.66 2.85 3.17 3.21 2.99 2.96 3.28 3.86 4.17 4.06 3.95
3.14 3.00 2.83 2.77 2.91 3.13 3.29 3.32 3.21 3.00 2.76 2.77 2.90 2.96 3.07 3.09 3.43 3.52 3.59 3.69 3.65 3.42 3.55 3.73 3.79 3.96 3.76 3.57 3.54 3.40 3.21 3.14 2.83 2.84 3.01 3.28 3.08 2.92 3.07 3.50 3.98 4.14 4.09
3.29 3.26 3.04 2.83 3.26 3.65 3.79 3.83 3.62 3.34 2.96 2.91 2.96 3.04 3.15 3.25 3.43 3.67 3.46 3.46 3.78 3.63 3.76 4.15 4.09 4.18 4.29 4.10 3.86 3.52 3.31 3.36 2.92 2.90 3.05 3.34 3.51 3.01 3.17 3.52 3.86 3.97 4.18
3.38 3.36 3.34 3.45 3.59 3.77 3.89 4.03 3.80 3.57 3.35 3.10 3.02 3.01 3.14 3.26 3.41 3.83 3.88 3.94 3.90 3.86 3.93 3.61 4.15 4.47 4.57 4.40 3.82 3.58 3.28 3.23 3.07 2.90 3.01 2.91 3.09 3.09 3.16 3.26 3.63 3.73 4.11
3.50 3.64 3.61 3.73 3.93 4.24 4.43 4.63 4.28 3.90 3.62 3.36 3.17 3.24 3.28 3.49 3.60 3.95 4.04 4.06 3.86 3.97 4.03 4.05 4.47 4.44 4.17 4.18 3.47 3.18 3.09 2.88 2.86 2.83 2.59 2.61 2.75 2.69 2.89 3.00 3.39 3.01 3.35
3.71 3.89 3.91 4.17 4.61 4.97 4.81 4.50 4.35 4.13 3.90 3.65 3.38 3.29 3.36 3.35 3.51 3.90 3.81 4.19 4.05 3.89 3.86 3.88 4.24 4.31 3.98 4.15 4.14 3.70 3.13 2.58 2.55 2.44 2.39 2.55 2.51 2.57 2.80 3.15 3.57 3.54 3.21
3.75 4.17 4.31 4.53 4.92 5.09 4.94 4.81 4.68 4.56 4.16 4.05 3.89 3.73 3.35 3.17 3.29 3.32 3.70 3.58 3.68 3.87 3.80 3.97 4.25 4.09 3.72 4.19 4.41 4.59 3.97 3.50 2.80 2.18 2.48 2.63 2.68 2.92 2.90 3.06 3.51 3.82 3.59
3.03 3.28 3.58 4.11 4.65 4.86 4.93 4.82 4.79 4.83 4.39 4.14 4.01 3.86 3.46 3.18 3.08 3.19 3.39 3.50 3.63 3.56 3.70 3.91 3.94 4.00 3.91 4.04 4.27 4.63 4.29 3.77 3.18 2.52 2.31 2.44 2.79 3.08 3.02 3.06 3.06 3.39 3.43
2.31 2.62 3.04 3.53 3.91 4.15 4.24 4.25 4.31 4.29 4.22 4.13 3.98 3.63 3.40 3.17 3.05 3.11 3.24 3.35 3.45 3.30 3.48 3.31 3.41 3.89 4.03 3.86 4.03 3.94 3.90 3.82 3.63 3.07 2.54 2.33 2.49 2.65 2.75 2.60 2.59 2.90 3.23
2.15 2.46 2.78 3.13 3.44 3.61 3.71 3.80 3.92 3.82 3.86 3.75 3.59 3.40 3.20 3.05 2.91 2.71 2.85 3.10 3.20 3.10 3.05 3.13 3.38 3.48 3.44 3.48 3.65 3.71 3.77 3.77 3.44 3.23 2.84 2.52 2.34 2.10 2.18 2.27 2.35 2.47 2.67
2.25 2.60 2.88 3.13 3.37 3.44 3.22 3.13 3.18 3.24 3.30 3.26 3.12 2.96 2.75 2.71 2.64 2.49 2.55 2.83 2.94 2.91 2.89 2.92 3.05 3.09 3.13 3.17 3.27 3.36 3.55 3.58 3.52 3.60 3.10 2.68 2.43 1.91 1.82 1.97 2.09 2.19 2.40